AirNav   Air Wisconsin Up To $57,000 Bonus
 
 1656 users online  

08CL Kistler Ranch Airport
Jamestown, California, USA

GOING TO JAMESTOWN?


FAA INFORMATION EFFECTIVE 04 NOVEMBER 2021

Location

FAA Identifier: 08CL
Lat/Long: 37-51-34.7370N 120-33-15.7190W
37-51.578950N 120-33.261983W
37.8596492,-120.5543664
(estimated)
Elevation: 1025 ft. / 312 m (estimated)
Variation: 16E (1985)
From city: 9 miles SW of JAMESTOWN, CA
Time zone: UTC -7 (UTC -8 during Standard Time)
Zip code: 95327

Airport Operations

Airport use: Private use. Permission required prior to landing
Activation date: 04/1964
Control tower: no
ARTCC: OAKLAND CENTER
FSS: RANCHO MURIETA FLIGHT SERVICE STATION
Attendance: UNATNDD
Wind indicator: yes
Segmented circle: no

Airport Communications

WX AWOS-3 at O22 (12 nm NE): 124.65 (209-536-9384)
WX AWOS-3P at CPU (18 nm N): 118.525 (209-736-2523)

Nearby radio navigation aids

VOR radial/distance  VOR name  Freq  Var
MODr037/23.7MODESTO VOR/DME114.6017E
LINr104/24.9LINDEN VOR/DME114.8017E
HYPr334/39.1EL NIDO VOR/DME114.2015E

Airport Services

Airframe service: NONE
Powerplant service: NONE

Runway Information

Runway E/W

Dimensions: 2000 x 50 ft. / 610 x 15 m
Surface: dirt
RUNWAY E  RUNWAY W
Traffic pattern: rightright

Airport Ownership and Management from official FAA records

Ownership: Privately-owned
Owner: MATTHEW KISTLER
11400 STATE HWY 108
JAMESTOWN, CA 95327
Phone (209) 606-0902
Manager: MATTHEW KISTLER
11400 STATE HWY 108
JAMESTOWN, CA 95321
Phone (209) 606-0902

Additional Remarks

FOR CD CTC NORCAL APCH AT 916-361-0516.

Instrument Procedures

There are no published instrument procedures at 08CL.

Some nearby airports with instrument procedures:

O22 - Columbia Airport (12 nm NE)
O27 - Oakdale Airport (13 nm SW)
KCPU - Calaveras County Airport - Maury Rasmussen Field (18 nm N)
E45 - Pine Mountain Lake Airport (18 nm E)
KMOD - Modesto City-County Airport-Harry Sham Field (24 nm SW)
 
Loc | Ops | Rwys | IFR | FBO | Links
Com | Nav | Svcs | Stats | Notes
Area around 08CL (Kistler Ranch Airport)
 
Road maps at: MapQuest Bing Google
 
Aerial photo
No photo
 
Sectional chart

 
Airport distance calculator
Flying to Kistler Ranch Airport? Find the distance to fly.

From to 08CL

Sunrise and sunset
Times for 29-Nov-2021
 Local
(UTC-8)
 Zulu
(UTC)
Morning civil twilight06:2914:29
Sunrise06:5814:58
Sunset16:4300:43
Evening civil twilight17:1201:12

Current date and time
Zulu (UTC)  30-Nov-2021 00:37:09
Local (UTC-8)  29-Nov-2021 16:37:09
 
METAR
KO22 
12nm NE 
300015Z AUTO 00000KT 10SM CLR 19/06 A3012 RMK A01
KCPU 
18nm N 
300015Z AUTO 34011KT 10SM 17/10 A3012 RMK AO2 T01660096
KMOD 
24nm SW 
292353Z 31005KT 8SM CLR 20/11 A3010 RMK AO2 SLP191 T02000106 10206 20133 56015
TAF
KMOD 
24nm SW 
291720Z 2918/3018 VRB04KT 3SM HZ FEW250 FM292000 32006KT P6SM FEW250 FM300400 VRB03KT 3SM BR FEW250 FM300600 VRB02KT 1 1/2SM BR FEW250 TEMPO 3008/3012 1/4SM FG VV003 FM301200 VRB02KT 1/4SM FG VV002
KMER 
29nm S 
291720Z 2918/3018 00000KT 6SM HZ SKC TEMPO 2918/2922 5SM HZ FM300600 00000KT 4SM BR SKC FM301400 07002KT 2SM BR SKC
NOTAMs
Click for the latest NOTAMs
NOTAMs are issued by the DoD/FAA and will open in a separate window not controlled by AirNav.

 

 
 

Would you like to see your business listed on this page?

 If your business provides an interesting product or service to pilots, flight crews, aircraft, or users of the Kistler Ranch Airport, you should consider listing it here.  To start the listing process, click on the button below
 
Add a business
 

Other Pages about Kistler Ranch Airport

Update a link
 
Copyright © AirNav, LLC. All rights reserved. Privacy Policy  Contact